Location: Medoc Mountain State Park
(36.2578°N, 77.8786°W)
Time: 15:12:47
(UTC-04:00)

Daily predictions for brighter satellites

Satellite Brightness Start Highest point End
(mag) Time Altitude Azimuth Time Altitude Azimuth Time Altitude Azimuth
ATLAS 2A CENTAUR R/B 4.2 20:33:42 10° WSW 20:40:07 51° S 21:04:17 10° ESE
Cosmos 2237 Rocket 3.0 20:53:27 10° NNW 20:58:54 52° WSW 21:04:19 10° S
Helios 1A 3.6 20:56:00 10° SE 20:59:49 38° ENE 21:03:40 10° N
Cosmos 1356 Rocket 4.1 21:00:43 10° SSE 21:04:36 36° E 21:08:32 10° NNE
Delta 2 Rocket 4.3 21:01:09 10° SW 21:06:26 50° SSE 21:12:01 10° E
ERS-1 Rocket 4.3 21:02:38 10° ESE 21:06:39 25° ENE 21:10:41 10° NNE
Cosmos 1184 Rocket 3.5 21:04:04 10° SSW 21:07:23 60° W 21:10:44 10° N
Cosmos 1850 Rocket 4.1 21:03:07 10° SSW 21:08:17 86° WNW 21:13:31 10° NNE
Cosmos 1242 Rocket 3.7 21:05:27 10° NNE 21:08:42 28° ENE 21:11:56 10° SE
Cosmos 1674 3.2 21:05:51 10° SSE 21:09:21 39° E 21:12:52 10° NNE
CZ-4B DEB 3.7 21:07:07 10° SE 21:09:43 28° ENE 21:12:19 10° NNE
Cosmos 1867 3.8 21:06:03 10° SSW 21:11:28 79° WNW 21:16:57 10° NNE
In-Cosmos 22 4.4 21:06:08 10° S 21:11:51 82° W 21:17:39 10° N
SJ-11-01 4.4 21:10:21 10° SSE 21:15:02 64° ENE 21:19:45 10° N
RESURS DK-1 4.0 21:12:13 10° N 21:15:27 21° ENE 21:18:39 10° ESE
Cosmos 1340 Rocket 3.6 21:16:07 10° SSW 21:20:03 55° W 21:24:03 10° N
NOSS 3-4 (A) 4.4 21:13:43 10° NW 21:20:43 58° WSW 21:28:07 10° SSE
NOSS 3-4 (C) 4.4 21:13:48 10° NW 21:20:49 58° WSW 21:28:14 10° SSE
Milstar 3 Cent rocket 3.8 21:16:10 10° WSW 21:21:57 39° S 21:31:39 12° SE
Resurs 01 Rocket 3.3 21:20:58 10° SSW 21:24:54 32° W 21:28:52 10° NNW
SL-16 R/B 2.3 21:19:51 10° NNW 21:25:31 79° WSW 21:31:09 10° SSE
Cosmos 1939 Rocket 2.9 21:23:06 10° SSE 21:27:06 89° W 21:31:11 10° NNW
Cosmos 1459 Rocket 4.2 21:22:49 10° N 21:28:58 56° E 21:35:00 10° SSE
Cosmos 1908 3.3 21:25:19 10° N 21:29:09 58° E 21:32:42 11° SSE
KORONAS-FOTON 3.9 21:29:33 10° S 21:33:15 53° E 21:36:56 10° NNE
CZ-3B R/B 3.5 21:32:24 10° SW 21:34:57 87° NW 21:42:26 10° NE
USA 186 4.0 21:36:37 10° SW 21:37:44 13° W 21:38:53 10° WNW
H-2A R/B 3.6 21:36:46 13° ESE 21:40:02 22° ENE 21:44:02 10° NNE
Cosmos 2100 Rocket 4.0 21:34:15 10° N 21:40:36 76° E 21:46:58 10° S
Cosmos 1076 Rocket 3.6 21:37:01 10° S 21:41:22 81° W 21:45:45 10° N
GPS 2-05 Rocket1 2.6 21:40:01 10° WSW 21:43:02 54° SSE 21:45:06 18° E
ERBS 4.1 21:40:22 10° NNW 21:43:07 22° NE 21:45:11 14° E
Meteor 2-17 Rocket 4.4 21:39:57 10° N 21:46:09 83° E 21:52:14 10° S
Cosmos 2123 Rocket 4.3 21:41:20 11° SSE 21:46:56 46° E 21:52:48 10° NNE
Cosmos 2173 Rocket 4.0 21:40:57 10° N 21:47:09 78° E 21:53:12 11° S
SPOT 5 3.9 21:44:58 18° ESE 21:47:57 33° ENE 21:52:29 10° N
Lacrosse 5 2.2 21:43:29 10° NNW 21:48:27 54° NE 21:51:53 19° ESE
Cosmos 1818 4.2 21:43:38 10° NW 21:48:55 53° WSW 21:53:39 13° S
NOAA 11 4.3 21:47:25 16° SSE 21:51:40 62° ENE 21:57:01 10° N
Cosmos 2151 4.4 21:51:16 19° ESE 21:52:21 21° E 21:55:35 10° NE
Atlas Centaur 2 3.0 21:51:04 10° WSW 21:53:17 15° SSW 21:54:14 14° S
Cosmos 2061 Rocket 4.0 21:47:31 10° N 21:53:57 82° E 21:59:50 13° S
Cosmos 1408 Rocket 3.4 21:49:41 10° S 21:53:58 85° E 21:58:19 10° N
Abrixas rocket 3.9 21:52:30 10° NNW 21:55:19 26° NNE 21:57:18 15° ENE
YAOGAN 6 3.2 21:52:07 12° S 21:55:22 56° W 21:59:00 10° NNW
MetOp-B 4.3 21:53:16 19° SSE 21:57:02 59° ENE 22:02:18 10° N
Cosmos 2221 3.8 21:56:27 10° NNW 22:00:33 40° W 22:04:40 10° SSW
Cosmos 1626 3.9 22:03:26 17° E 22:03:26 17° E 22:05:43 10° NE
Cosmos 1814 Rocket 4.2 22:03:33 10° N 22:08:49 58° ENE 22:11:34 27° SE
Cosmos 1726 2.0 22:05:39 10° N 22:09:19 72° E 22:10:46 34° SSE
Cosmos 1725 Rocket 4.1 22:06:19 10° N 22:12:30 61° E 22:16:09 25° SSE
Terra 3.5 22:11:39 17° E 22:13:07 19° ENE 22:16:27 10° NNE
Cosmos 1763 Rocket 3.8 22:09:21 10° N 22:14:17 49° ENE 22:16:28 30° SE
Cosmos 841 Rocket 4.2 22:09:34 10° N 22:14:28 38° ENE 22:16:35 27° ESE
Cosmos 1500 Rocket 3.9 22:13:37 31° SSE 22:15:20 48° E 22:19:38 10° NNE
Cosmos 2263 Rocket 2.2 22:11:05 13° S 22:15:54 58° ESE 22:21:22 10° NNE
Cosmos 1486 Rocket 3.9 22:10:59 10° S 22:16:13 77° ESE 22:21:32 10° NNE
Cosmos 332 Rocket 3.8 22:12:18 10° NNW 22:17:14 85° ENE 22:19:40 30° SSE
Tiangong 1 2.7 22:14:53 10° NW 22:17:19 26° NNE 22:18:28 19° NE
Cosmos 1802 Rocket 4.2 22:11:29 10° NNW 22:17:34 69° W 22:22:47 15° S
OAO 1 Rocket 4.4 22:14:18 10° W 22:19:40 77° S 22:22:42 26° ESE
Abrixas 4.0 22:18:37 10° W 22:21:07 34° NNW 22:23:38 10° NE
Cosmos 1300 2.6 22:21:17 10° N 22:25:08 88° E 22:26:18 43° S
DMSP B5D2-2 4.3 22:25:00 10° NNE 22:30:02 46° E 22:31:32 36° SE
Cosmos 1864 Rocket 4.5 22:27:46 10° N 22:34:10 89° WSW 22:37:46 28° S
SPOT 1/Viking Rocket 3.5 22:33:04 37° SSE 22:35:04 71° ENE 22:40:13 10° N
USA 234 3.1 22:28:45 10° NE 22:35:18 81° SE 22:41:51 10° SW
Cosmos 1328 Rocket 3.7 22:34:13 10° NNW 22:38:32 68° W 22:40:04 38° SSW
SL-14 R/B 4.1 22:36:06 20° SSW 22:38:33 48° W 22:42:22 10° N
Cosmos 1151 Rocket 3.1 22:34:23 10° N 22:38:43 61° E 22:39:31 51° SE
ERS-1 Rocket 4.3 22:41:51 16° SSW 22:45:14 34° W 22:49:47 10° NNW
CZ-4C R/B 2.9 22:46:15 31° E 22:46:15 31° E 22:50:25 10° NE
Cosmos 1515 Rocket 3.5 22:42:36 10° N 22:46:57 79° W 22:48:00 51° S
H-2A R/B 3.1 22:47:34 29° ENE 22:47:47 30° ENE 22:51:27 10° N
EO 1 Delta rocket 3.9 22:47:12 40° S 22:48:51 72° W 22:53:29 10° NNW
Cosmos 1844 Rocket 4.2 22:50:05 19° E 22:50:05 19° E 22:52:56 10° NE
Cosmos 1743 Rocket 4.4 22:46:32 21° SW 22:49:07 46° W 22:53:17 10° N
Delta 2 Rocket 4.0 22:43:28 10° W 22:49:12 83° S 22:52:25 28° E
ARGOS 3.6 22:46:39 28° SSW 22:49:24 55° W 22:54:43 10° NNW
USA 245 3.9 22:48:40 38° SW 22:49:26 45° W 22:53:29 10° NNW
Cosmos 2058 2.9 22:50:47 57° SSW 22:51:37 85° W 22:55:50 10° N
RESURS DK-1 3.9 22:49:55 10° NW 22:53:28 28° WSW 22:54:38 24° SW
Cosmos 1455 3.1 22:54:15 10° N 22:57:20 38° NE 22:57:20 38° NE
Meteor 2-12 Rocket 4.3 22:55:41 10° N 23:01:46 80° E 23:03:35 47° SSE
Cosmos 2233 Rocket 3.9 22:55:41 10° N 23:01:54 86° W 23:04:08 42° S
Cosmos 1503 Rocket 4.0 23:00:29 34° SSW 23:02:46 78° WNW 23:07:57 10° NNE
Cosmos 2228 Rocket 4.3 23:01:27 10° NNW 23:05:40 37° W 23:07:15 28° SW
Cosmos 371 Rocket 4.4 23:01:34 10° NW 23:05:58 36° WSW 23:07:24 30° SW
Cosmos 1943 3.3 23:00:31 10° NNW 23:06:08 66° WSW 23:07:41 46° S
Cosmos 540 Rocket 3.6 23:02:49 10° N 23:07:53 56° ENE 23:08:29 52° E
CZ-4B R/B 4.1 23:05:03 10° NNE 23:09:44 42° E 23:09:44 42° E
Cosmos 968 Rocket 4.3 23:12:32 36° E 23:12:32 36° E 23:16:40 10° NE
H-2A R/B 2.9 23:17:24 34° SW 23:19:03 44° W 23:24:14 10° NNW
CZ-2C R/B 4.5 23:20:00 10° NE 23:22:08 16° ENE 23:22:08 16° ENE
Cosmos 1869 4.5 23:22:53 10° N 23:25:35 35° NE 23:25:35 35° NE
Sich 1 3.7 23:28:52 45° NE 23:28:52 45° NE 23:32:04 10° NNE
H-2A ROCKET BODY 3.3 23:24:43 10° WSW 23:29:27 51° SSE 23:50:41 10° E
Lacrosse 5 3.6 23:27:20 10° WNW 23:31:02 21° WSW 23:31:04 21° WSW
Cosmos 1626 4.1 23:38:04 22° W 23:38:22 22° WNW 23:41:22 10° NNW
CZ-4C R/B 4.3 23:40:16 45° NE 23:40:16 45° NE 23:43:47 10° N
Cosmos 1513 Rocket 4.3 23:33:24 10° N 23:39:34 69° E 23:40:12 64° ESE
Cosmos 1707 Rocket 4.0 23:44:32 10° N 23:48:18 61° NNW 23:48:18 61° NNW
deb Chang Zheng 4 4.3 23:45:04 10° N 23:49:17 49° WNW 23:49:17 49° WNW
Cosmos 2278 Rocket 3.7 23:51:08 23° ENE 23:51:08 23° ENE 23:54:04 10° NE
Terra 2.7 23:50:33 39° W 23:50:33 39° W 23:55:00 10° NNW
